Location: Warszawa
(52.2500°N, 21.0000°E)
Time: 21:08:24
(UTC+02:00)

AO-91 - Pass Details

Date: 30 April 2024
Orbit: 441 x 737 km, 97.6° (Epoch: 20 May)

Event Time Altitude Azimuth Distance (km) Brightness Sun altitude
Rises 23:19:59 0° 4° (N) 2,458 ? -20.8°
Reaches altitude 10° 23:22:11 10° 351° (N) 1,598 ? -20.9°
Maximum altitude 23:25:02 25° 294° (WNW) 975 ? -21.0°
Enters shadow 23:26:51 17° 250° (WSW) 1,286 ? -21.1°
